owner,sensor,date,latitude,longitude,relative_humidity,qcFlag 
COMPS,ioos:station:USF.COMPS:C13:1,2016-08-01T00:05:00Z,26.0630,-83.0730,69.85,1111122 
COMPS,ioos:station:USF.COMPS:C13:1,2016-08-01T00:35:00Z,26.0630,-83.0730,70.98,1111122 
COMPS,ioos:station:USF.COMPS:C13:1,2016-08-01T01:05:00Z,26.0630,-83.0730,72.09,1111122 
COMPS,ioos:station:USF.COMPS:C13:1,2016-08-01T01:35:00Z,26.0630,-83.0730,69.63,1111122 
COMPS,ioos:station:USF.COMPS:C13:1,2016-08-01T02:05:00Z,26.0630,-83.0730,70.44,1111122 
COMPS,ioos:station:USF.COMPS:C13:1,2016-08-01T02:35:00Z,26.0630,-83.0730,71.34,1111122 
COMPS,ioos:station:USF.COMPS:C13:1,2016-08-01T03:05:00Z,26.0630,-83.0730,71.94,1111122 
COMPS,ioos:station:USF.COMPS:C13:1,2016-08-01T03:35:00Z,26.0630,-83.0730,72.92,1111122 
COMPS,ioos:station:USF.COMPS:C13:1,2016-08-01T04:05:00Z,26.0630,-83.0730,67.9,1111122 
COMPS,ioos:station:USF.COMPS:C13:1,2016-08-01T04:35:00Z,26.0630,-83.0730,67.27,1111122 
COMPS,ioos:station:USF.COMPS:C13:1,2016-08-01T05:05:00Z,26.0630,-83.0730,68.21,1111122 
COMPS,ioos:station:USF.COMPS:C13:1,2016-08-01T05:35:00Z,26.0630,-83.0730,70.26,1111122 
COMPS,ioos:station:USF.COMPS:C13:1,2016-08-01T06:05:00Z,26.0630,-83.0730,69.84,1111122 
COMPS,ioos:station:USF.COMPS:C13:1,2016-08-01T06:35:00Z,26.0630,-83.0730,73.56,1111122 
COMPS,ioos:station:USF.COMPS:C13:1,2016-08-01T07:05:00Z,26.0630,-83.0730,71.97,1111122 
COMPS,ioos:station:USF.COMPS:C13:1,2016-08-01T07:35:00Z,26.0630,-83.0730,74.07,1111122 
COMPS,ioos:station:USF.COMPS:C13:1,2016-08-01T08:05:00Z,26.0630,-83.0730,72.85,1111122 
COMPS,ioos:station:USF.COMPS:C13:1,2016-08-01T08:35:00Z,26.0630,-83.0730,75.96,1111122 
COMPS,ioos:station:USF.COMPS:C13:1,2016-08-01T09:05:00Z,26.0630,-83.0730,74.25,1111122 
COMPS,ioos:station:USF.COMPS:C13:1,2016-08-01T09:35:00Z,26.0630,-83.0730,77.25,1111122 
COMPS,ioos:station:USF.COMPS:C13:1,2016-08-01T10:05:00Z,26.0630,-83.0730,76.76,1111122 
COMPS,ioos:station:USF.COMPS:C13:1,2016-08-01T10:35:00Z,26.0630,-83.0730,76.27,1111122 
COMPS,ioos:station:USF.COMPS:C13:1,2016-08-01T11:05:00Z,26.0630,-83.0730,81.67,1111122 
COMPS,ioos:station:USF.COMPS:C13:1,2016-08-01T11:35:00Z,26.0630,-83.0730,74.09,1111122 
COMPS,ioos:station:USF.COMPS:C13:1,2016-08-01T12:05:00Z,26.0630,-83.0730,72.19,1111122 
COMPS,ioos:station:USF.COMPS:C13:1,2016-08-01T12:35:00Z,26.0630,-83.0730,75.63,1111122 
COMPS,ioos:station:USF.COMPS:C13:1,2016-08-01T14:05:00Z,26.0630,-83.0730,75.38,1111122 
COMPS,ioos:station:USF.COMPS:C13:1,2016-08-01T14:35:00Z,26.0630,-83.0730,74.59,1111122 
COMPS,ioos:station:USF.COMPS:C13:1,2016-08-01T16:05:00Z,26.0630,-83.0730,75.18,1111122 
COMPS,ioos:station:USF.COMPS:C13:1,2016-08-01T16:35:00Z,26.0630,-83.0730,70.57,1111122 
COMPS,ioos:station:USF.COMPS:C13:1,2016-08-01T18:05:00Z,26.0630,-83.0730,71.63,1111122 
COMPS,ioos:station:USF.COMPS:C13:1,2016-08-01T18:35:00Z,26.0630,-83.0730,69.93,1111122 
COMPS,ioos:station:USF.COMPS:C13:1,2016-08-01T19:05:00Z,26.0630,-83.0730,70.64,1111122 
COMPS,ioos:station:USF.COMPS:C13:1,2016-08-01T19:35:00Z,26.0630,-83.0730,70.66,1111122 
COMPS,ioos:station:USF.COMPS:C13:1,2016-08-01T20:05:00Z,26.0630,-83.0730,69.23,1111122 
COMPS,ioos:station:USF.COMPS:C13:1,2016-08-01T20:35:00Z,26.0630,-83.0730,67.89,1111122 
COMPS,ioos:station:USF.COMPS:C13:1,2016-08-01T21:05:00Z,26.0630,-83.0730,67.81,1111122 
COMPS,ioos:station:USF.COMPS:C13:1,2016-08-01T21:35:00Z,26.0630,-83.0730,66.94,1111122 
COMPS,ioos:station:USF.COMPS:C13:1,2016-08-01T22:05:00Z,26.0630,-83.0730,69.63,1111122 
COMPS,ioos:station:USF.COMPS:C13:1,2016-08-01T22:35:00Z,26.0630,-83.0730,67.58,1111122 
COMPS,ioos:station:USF.COMPS:C13:1,2016-08-01T23:05:00Z,26.0630,-83.0730,67.29,1111122 
COMPS,ioos:station:USF.COMPS:C13:1,2016-08-01T23:35:00Z,26.0630,-83.0730,68.71,1111122 
COMPS,ioos:station:USF.COMPS:C13:1,2016-08-02T02:05:00Z,26.0630,-83.0730,71.41,1111122 
COMPS,ioos:station:USF.COMPS:C13:1,2016-08-02T02:35:00Z,26.0630,-83.0730,68.69,1111122 
COMPS,ioos:station:USF.COMPS:C13:1,2016-08-02T03:05:00Z,26.0630,-83.0730,70.22,1111122 
COMPS,ioos:station:USF.COMPS:C13:1,2016-08-02T03:35:00Z,26.0630,-83.0730,68.12,1111122 
COMPS,ioos:station:USF.COMPS:C13:1,2016-08-02T04:05:00Z,26.0630,-83.0730,67.91,1111122 
COMPS,ioos:station:USF.COMPS:C13:1,2016-08-02T04:35:00Z,26.0630,-83.0730,68.58,1111122 
COMPS,ioos:station:USF.COMPS:C13:1,2016-08-02T07:05:00Z,26.0630,-83.0730,72.16,1111122 
COMPS,ioos:station:USF.COMPS:C13:1,2016-08-02T07:35:00Z,26.0630,-83.0730,74.0,1111122 
COMPS,ioos:station:USF.COMPS:C13:1,2016-08-02T08:05:00Z,26.0630,-83.0730,77.63,1111122 
COMPS,ioos:station:USF.COMPS:C13:1,2016-08-02T08:35:00Z,26.0630,-83.0730,77.37,1111122 
COMPS,ioos:station:USF.COMPS:C13:1,2016-08-02T09:05:00Z,26.0630,-83.0730,79.13,1111122 
COMPS,ioos:station:USF.COMPS:C13:1,2016-08-02T09:35:00Z,26.0630,-83.0730,76.12,1111122 
COMPS,ioos:station:USF.COMPS:C13:1,2016-08-02T10:05:00Z,26.0630,-83.0730,76.08,1111122 
COMPS,ioos:station:USF.COMPS:C13:1,2016-08-02T10:35:00Z,26.0630,-83.0730,78.12,1111122 
COMPS,ioos:station:USF.COMPS:C13:1,2016-08-02T11:05:00Z,26.0630,-83.0730,79.11,1111122 
COMPS,ioos:station:USF.COMPS:C13:1,2016-08-02T11:35:00Z,26.0630,-83.0730,77.73,1111122 
COMPS,ioos:station:USF.COMPS:C13:1,2016-08-02T13:05:00Z,26.0630,-83.0730,76.63,1111122 
COMPS,ioos:station:USF.COMPS:C13:1,2016-08-02T13:35:00Z,26.0630,-83.0730,77.54,1111122 
COMPS,ioos:station:USF.COMPS:C13:1,2016-08-02T15:05:00Z,26.0630,-83.0730,73.89,1111122 
COMPS,ioos:station:USF.COMPS:C13:1,2016-08-02T15:35:00Z,26.0630,-83.0730,74.97,1111122 
COMPS,ioos:station:USF.COMPS:C13:1,2016-08-02T16:05:00Z,26.0630,-83.0730,78.77,1111122 
COMPS,ioos:station:USF.COMPS:C13:1,2016-08-02T16:35:00Z,26.0630,-83.0730,77.39,1111122 
COMPS,ioos:station:USF.COMPS:C13:1,2016-08-02T18:05:00Z,26.0630,-83.0730,78.59,1111122 
COMPS,ioos:station:USF.COMPS:C13:1,2016-08-02T18:35:00Z,26.0630,-83.0730,66.75,1111122 
COMPS,ioos:station:USF.COMPS:C13:1,2016-08-02T20:05:00Z,26.0630,-83.0730,66.05,1111122 
COMPS,ioos:station:USF.COMPS:C13:1,2016-08-02T20:35:00Z,26.0630,-83.0730,68.24,1111122 
COMPS,ioos:station:USF.COMPS:C13:1,2016-08-02T21:05:00Z,26.0630,-83.0730,68.48,1111122 
COMPS,ioos:station:USF.COMPS:C13:1,2016-08-02T21:35:00Z,26.0630,-83.0730,69.24,1111122 
COMPS,ioos:station:USF.COMPS:C13:1,2016-08-03T00:05:00Z,26.0630,-83.0730,74.26,1111122 
COMPS,ioos:station:USF.COMPS:C13:1,2016-08-03T00:35:00Z,26.0630,-83.0730,76.49,1111122 
COMPS,ioos:station:USF.COMPS:C13:1,2016-08-03T01:05:00Z,26.0630,-83.0730,74.32,1111122 
COMPS,ioos:station:USF.COMPS:C13:1,2016-08-03T01:35:00Z,26.0630,-83.0730,75.07,1111122 
COMPS,ioos:station:USF.COMPS:C13:1,2016-08-03T02:05:00Z,26.0630,-83.0730,76.94,1111122 
COMPS,ioos:station:USF.COMPS:C13:1,2016-08-03T02:35:00Z,26.0630,-83.0730,78.85,1111122 
COMPS,ioos:station:USF.COMPS:C13:1,2016-08-03T03:05:00Z,26.0630,-83.0730,76.49,1111122 
COMPS,ioos:station:USF.COMPS:C13:1,2016-08-03T03:35:00Z,26.0630,-83.0730,73.36,1111122 
COMPS,ioos:station:USF.COMPS:C13:1,2016-08-03T04:05:00Z,26.0630,-83.0730,75.37,1111122 
COMPS,ioos:station:USF.COMPS:C13:1,2016-08-03T04:35:00Z,26.0630,-83.0730,76.35,1111122 
COMPS,ioos:station:USF.COMPS:C13:1,2016-08-03T05:05:00Z,26.0630,-83.0730,78.85,1111122 
COMPS,ioos:station:USF.COMPS:C13:1,2016-08-03T05:35:00Z,26.0630,-83.0730,78.33,1111122 
COMPS,ioos:station:USF.COMPS:C13:1,2016-08-03T06:05:00Z,26.0630,-83.0730,78.35,1111122 
COMPS,ioos:station:USF.COMPS:C13:1,2016-08-03T06:35:00Z,26.0630,-83.0730,78.26,1111122 
COMPS,ioos:station:USF.COMPS:C13:1,2016-08-03T07:05:00Z,26.0630,-83.0730,76.8,1111122 
COMPS,ioos:station:USF.COMPS:C13:1,2016-08-03T07:35:00Z,26.0630,-83.0730,75.89,1111122 
COMPS,ioos:station:USF.COMPS:C13:1,2016-08-03T11:05:00Z,26.0630,-83.0730,77.27,1111122 
COMPS,ioos:station:USF.COMPS:C13:1,2016-08-03T11:35:00Z,26.0630,-83.0730,74.83,1111122 
COMPS,ioos:station:USF.COMPS:C13:1,2016-08-03T12:05:00Z,26.0630,-83.0730,74.86,1111122 
COMPS,ioos:station:USF.COMPS:C13:1,2016-08-03T12:35:00Z,26.0630,-83.0730,75.1,1111122 
COMPS,ioos:station:USF.COMPS:C13:1,2016-08-03T13:05:00Z,26.0630,-83.0730,72.76,1111122 
COMPS,ioos:station:USF.COMPS:C13:1,2016-08-03T13:35:00Z,26.0630,-83.0730,75.05,1111122 
COMPS,ioos:station:USF.COMPS:C13:1,2016-08-03T14:05:00Z,26.0630,-83.0730,74.99,1111122 
COMPS,ioos:station:USF.COMPS:C13:1,2016-08-03T14:35:00Z,26.0630,-83.0730,74.63,1111122 
COMPS,ioos:station:USF.COMPS:C13:1,2016-08-03T15:05:00Z,26.0630,-83.0730,74.61,1111122 
COMPS,ioos:station:USF.COMPS:C13:1,2016-08-03T15:35:00Z,26.0630,-83.0730,73.26,1111122 
COMPS,ioos:station:USF.COMPS:C13:1,2016-08-03T16:05:00Z,26.0630,-83.0730,71.94,1111122 
COMPS,ioos:station:USF.COMPS:C13:1,2016-08-03T16:35:00Z,26.0630,-83.0730,72.18,1111122 
COMPS,ioos:station:USF.COMPS:C13:1,2016-08-03T17:05:00Z,26.0630,-83.0730,71.61,1111122 
COMPS,ioos:station:USF.COMPS:C13:1,2016-08-03T17:35:00Z,26.0630,-83.0730,69.16,1111122 
COMPS,ioos:station:USF.COMPS:C13:1,2016-08-03T18:05:00Z,26.0630,-83.0730,67.96,1111122 
COMPS,ioos:station:USF.COMPS:C13:1,2016-08-03T18:35:00Z,26.0630,-83.0730,67.06,1111122 
COMPS,ioos:station:USF.COMPS:C13:1,2016-08-03T19:05:00Z,26.0630,-83.0730,67.36,1111122 
COMPS,ioos:station:USF.COMPS:C13:1,2016-08-03T19:35:00Z,26.0630,-83.0730,67.6,1111122 
COMPS,ioos:station:USF.COMPS:C13:1,2016-08-04T21:05:00Z,26.0630,-83.0730,73.61,1111122 
COMPS,ioos:station:USF.COMPS:C13:1,2016-08-04T21:35:00Z,26.0630,-83.0730,72.05,1111122 
COMPS,ioos:station:USF.COMPS:C13:1,2016-08-04T22:05:00Z,26.0630,-83.0730,71.19,1111122 
COMPS,ioos:station:USF.COMPS:C13:1,2016-08-04T22:35:00Z,26.0630,-83.0730,71.68,1111122 
COMPS,ioos:station:USF.COMPS:C13:1,2016-08-04T23:05:00Z,26.0630,-83.0730,72.25,1111122 
COMPS,ioos:station:USF.COMPS:C13:1,2016-08-04T23:35:00Z,26.0630,-83.0730,73.94,1111122 
COMPS,ioos:station:USF.COMPS:C13:1,2016-08-05T00:05:00Z,26.0630,-83.0730,75.4,1111122 
COMPS,ioos:station:USF.COMPS:C13:1,2016-08-05T00:35:00Z,26.0630,-83.0730,75.49,1111122 
COMPS,ioos:station:USF.COMPS:C13:1,2016-08-05T01:05:00Z,26.0630,-83.0730,75.92,1111122 
COMPS,ioos:station:USF.COMPS:C13:1,2016-08-05T01:35:00Z,26.0630,-83.0730,76.31,1111122 
COMPS,ioos:station:USF.COMPS:C13:1,2016-08-05T02:05:00Z,26.0630,-83.0730,77.97,1111122 
COMPS,ioos:station:USF.COMPS:C13:1,2016-08-05T02:35:00Z,26.0630,-83.0730,78.2,1111122 
COMPS,ioos:station:USF.COMPS:C13:1,2016-08-05T03:05:00Z,26.0630,-83.0730,78.01,1111122 
COMPS,ioos:station:USF.COMPS:C13:1,2016-08-05T03:35:00Z,26.0630,-83.0730,77.73,1111122 
COMPS,ioos:station:USF.COMPS:C13:1,2016-08-05T04:05:00Z,26.0630,-83.0730,77.52,1111122 
COMPS,ioos:station:USF.COMPS:C13:1,2016-08-05T04:35:00Z,26.0630,-83.0730,75.07,1111122 
COMPS,ioos:station:USF.COMPS:C13:1,2016-08-05T05:05:00Z,26.0630,-83.0730,75.14,1111122 
COMPS,ioos:station:USF.COMPS:C13:1,2016-08-05T05:35:00Z,26.0630,-83.0730,72.4,1111122 
COMPS,ioos:station:USF.COMPS:C13:1,2016-08-05T06:05:00Z,26.0630,-83.0730,70.74,1111122 
COMPS,ioos:station:USF.COMPS:C13:1,2016-08-05T06:35:00Z,26.0630,-83.0730,73.99,1111122 
COMPS,ioos:station:USF.COMPS:C13:1,2016-08-05T07:05:00Z,26.0630,-83.0730,73.9,1111122 
COMPS,ioos:station:USF.COMPS:C13:1,2016-08-05T07:35:00Z,26.0630,-83.0730,75.05,1111122 
COMPS,ioos:station:USF.COMPS:C13:1,2016-08-05T08:05:00Z,26.0630,-83.0730,72.96,1111122 
COMPS,ioos:station:USF.COMPS:C13:1,2016-08-05T08:35:00Z,26.0630,-83.0730,74.25,1111122 
COMPS,ioos:station:USF.COMPS:C13:1,2016-08-05T09:05:00Z,26.0630,-83.0730,72.68,1111122 
COMPS,ioos:station:USF.COMPS:C13:1,2016-08-05T09:35:00Z,26.0630,-83.0730,74.28,1111122 
COMPS,ioos:station:USF.COMPS:C13:1,2016-08-05T10:05:00Z,26.0630,-83.0730,71.77,1111122 
COMPS,ioos:station:USF.COMPS:C13:1,2016-08-05T10:35:00Z,26.0630,-83.0730,72.64,1111122 
COMPS,ioos:station:USF.COMPS:C13:1,2016-08-05T11:05:00Z,26.0630,-83.0730,71.07,1111122 
COMPS,ioos:station:USF.COMPS:C13:1,2016-08-05T11:35:00Z,26.0630,-83.0730,68.43,1111122 
COMPS,ioos:station:USF.COMPS:C13:1,2016-08-05T12:05:00Z,26.0630,-83.0730,70.17,1111122 
COMPS,ioos:station:USF.COMPS:C13:1,2016-08-05T12:35:00Z,26.0630,-83.0730,69.75,1111122 
COMPS,ioos:station:USF.COMPS:C13:1,2016-08-05T13:05:00Z,26.0630,-83.0730,70.38,1111122 
COMPS,ioos:station:USF.COMPS:C13:1,2016-08-05T13:35:00Z,26.0630,-83.0730,71.04,1111122 
COMPS,ioos:station:USF.COMPS:C13:1,2016-08-05T14:05:00Z,26.0630,-83.0730,69.86,1111122 
COMPS,ioos:station:USF.COMPS:C13:1,2016-08-05T14:35:00Z,26.0630,-83.0730,71.51,1111122 
COMPS,ioos:station:USF.COMPS:C13:1,2016-08-05T15:05:00Z,26.0630,-83.0730,71.95,1111122 
COMPS,ioos:station:USF.COMPS:C13:1,2016-08-05T15:35:00Z,26.0630,-83.0730,69.16,1111122 
COMPS,ioos:station:USF.COMPS:C13:1,2016-08-05T16:05:00Z,26.0630,-83.0730,66.36,1111122 
COMPS,ioos:station:USF.COMPS:C13:1,2016-08-05T16:35:00Z,26.0630,-83.0730,65.65,1111122 
COMPS,ioos:station:USF.COMPS:C13:1,2016-08-05T17:05:00Z,26.0630,-83.0730,66.11,1111122 
COMPS,ioos:station:USF.COMPS:C13:1,2016-08-05T17:35:00Z,26.0630,-83.0730,64.73,1111122 
COMPS,ioos:station:USF.COMPS:C13:1,2016-08-05T18:05:00Z,26.0630,-83.0730,66.31,1111122 
COMPS,ioos:station:USF.COMPS:C13:1,2016-08-05T18:35:00Z,26.0630,-83.0730,66.48,1111122 
COMPS,ioos:station:USF.COMPS:C13:1,2016-08-05T19:05:00Z,26.0630,-83.0730,65.54,1111122 
COMPS,ioos:station:USF.COMPS:C13:1,2016-08-05T19:35:00Z,26.0630,-83.0730,65.4,1111122 
COMPS,ioos:station:USF.COMPS:C13:1,2016-08-05T20:05:00Z,26.0630,-83.0730,64.23,1111122 
COMPS,ioos:station:USF.COMPS:C13:1,2016-08-05T20:35:00Z,26.0630,-83.0730,64.09,1111122 
COMPS,ioos:station:USF.COMPS:C13:1,2016-08-05T21:05:00Z,26.0630,-83.0730,60.05,1111122 
COMPS,ioos:station:USF.COMPS:C13:1,2016-08-05T21:35:00Z,26.0630,-83.0730,62.43,1111122 
COMPS,ioos:station:USF.COMPS:C13:1,2016-08-05T22:05:00Z,26.0630,-83.0730,62.83,1111122 
COMPS,ioos:station:USF.COMPS:C13:1,2016-08-05T22:35:00Z,26.0630,-83.0730,61.0,1111122 
COMPS,ioos:station:USF.COMPS:C13:1,2016-08-05T23:05:00Z,26.0630,-83.0730,62.52,1111122 
COMPS,ioos:station:USF.COMPS:C13:1,2016-08-05T23:35:00Z,26.0630,-83.0730,71.37,1111122 
COMPS,ioos:station:USF.COMPS:C13:1,2016-08-06T00:05:00Z,26.0630,-83.0730,70.91,1111122 
COMPS,ioos:station:USF.COMPS:C13:1,2016-08-06T00:35:00Z,26.0630,-83.0730,70.81,1111122 
COMPS,ioos:station:USF.COMPS:C13:1,2016-08-06T01:05:00Z,26.0630,-83.0730,70.84,1111122 
COMPS,ioos:station:USF.COMPS:C13:1,2016-08-06T01:35:00Z,26.0630,-83.0730,70.99,1111122 
COMPS,ioos:station:USF.COMPS:C13:1,2016-08-06T02:05:00Z,26.0630,-83.0730,71.34,1111122 
COMPS,ioos:station:USF.COMPS:C13:1,2016-08-06T02:35:00Z,26.0630,-83.0730,70.89,1111122 
COMPS,ioos:station:USF.COMPS:C13:1,2016-08-06T03:05:00Z,26.0630,-83.0730,70.17,1111122 
COMPS,ioos:station:USF.COMPS:C13:1,2016-08-06T03:35:00Z,26.0630,-83.0730,70.01,1111122 
COMPS,ioos:station:USF.COMPS:C13:1,2016-08-06T04:05:00Z,26.0630,-83.0730,68.54,1111122 
COMPS,ioos:station:USF.COMPS:C13:1,2016-08-06T04:35:00Z,26.0630,-83.0730,68.64,1111122 
COMPS,ioos:station:USF.COMPS:C13:1,2016-08-06T05:05:00Z,26.0630,-83.0730,67.66,1111122 
COMPS,ioos:station:USF.COMPS:C13:1,2016-08-06T05:35:00Z,26.0630,-83.0730,67.65,1111122 
COMPS,ioos:station:USF.COMPS:C13:1,2016-08-06T06:05:00Z,26.0630,-83.0730,67.32,1111122 
COMPS,ioos:station:USF.COMPS:C13:1,2016-08-06T06:35:00Z,26.0630,-83.0730,67.91,1111122 
COMPS,ioos:station:USF.COMPS:C13:1,2016-08-06T07:05:00Z,26.0630,-83.0730,69.58,1111122 
COMPS,ioos:station:USF.COMPS:C13:1,2016-08-06T07:35:00Z,26.0630,-83.0730,70.19,1111122 
COMPS,ioos:station:USF.COMPS:C13:1,2016-08-06T08:05:00Z,26.0630,-83.0730,69.17,1111122 
COMPS,ioos:station:USF.COMPS:C13:1,2016-08-06T08:35:00Z,26.0630,-83.0730,68.73,1111122 
COMPS,ioos:station:USF.COMPS:C13:1,2016-08-06T11:05:00Z,26.0630,-83.0730,71.79,1111122 
COMPS,ioos:station:USF.COMPS:C13:1,2016-08-06T11:35:00Z,26.0630,-83.0730,72.36,1111122 
COMPS,ioos:station:USF.COMPS:C13:1,2016-08-06T12:05:00Z,26.0630,-83.0730,72.43,1111122 
COMPS,ioos:station:USF.COMPS:C13:1,2016-08-06T12:35:00Z,26.0630,-83.0730,71.02,1111122 
COMPS,ioos:station:USF.COMPS:C13:1,2016-08-06T13:05:00Z,26.0630,-83.0730,69.46,1111122 
COMPS,ioos:station:USF.COMPS:C13:1,2016-08-06T13:35:00Z,26.0630,-83.0730,67.9,1111122 
COMPS,ioos:station:USF.COMPS:C13:1,2016-08-06T14:05:00Z,26.0630,-83.0730,72.52,1111122 
COMPS,ioos:station:USF.COMPS:C13:1,2016-08-06T14:35:00Z,26.0630,-83.0730,71.06,1111122 
COMPS,ioos:station:USF.COMPS:C13:1,2016-08-06T15:05:00Z,26.0630,-83.0730,71.58,1111122 
COMPS,ioos:station:USF.COMPS:C13:1,2016-08-06T15:35:00Z,26.0630,-83.0730,70.98,1111122 
COMPS,ioos:station:USF.COMPS:C13:1,2016-08-06T16:05:00Z,26.0630,-83.0730,71.49,1111122 
COMPS,ioos:station:USF.COMPS:C13:1,2016-08-06T16:35:00Z,26.0630,-83.0730,70.28,1111122 
COMPS,ioos:station:USF.COMPS:C13:1,2016-08-06T17:05:00Z,26.0630,-83.0730,69.91,1111122 
COMPS,ioos:station:USF.COMPS:C13:1,2016-08-06T17:35:00Z,26.0630,-83.0730,69.96,1111122 
COMPS,ioos:station:USF.COMPS:C13:1,2016-08-06T18:05:00Z,26.0630,-83.0730,70.63,1111122 
COMPS,ioos:station:USF.COMPS:C13:1,2016-08-06T18:35:00Z,26.0630,-83.0730,69.75,1111122 
COMPS,ioos:station:USF.COMPS:C13:1,2016-08-06T19:05:00Z,26.0630,-83.0730,71.49,1111122 
COMPS,ioos:station:USF.COMPS:C13:1,2016-08-06T19:35:00Z,26.0630,-83.0730,73.54,1111122 
COMPS,ioos:station:USF.COMPS:C13:1,2016-08-06T20:05:00Z,26.0630,-83.0730,74.28,1111122 
COMPS,ioos:station:USF.COMPS:C13:1,2016-08-06T20:35:00Z,26.0630,-83.0730,72.2,1111122 
COMPS,ioos:station:USF.COMPS:C13:1,2016-08-06T21:05:00Z,26.0630,-83.0730,74.79,1111122 
COMPS,ioos:station:USF.COMPS:C13:1,2016-08-06T21:35:00Z,26.0630,-83.0730,73.87,1111122 
COMPS,ioos:station:USF.COMPS:C13:1,2016-08-06T22:05:00Z,26.0630,-83.0730,72.49,1111122 
COMPS,ioos:station:USF.COMPS:C13:1,2016-08-06T22:35:00Z,26.0630,-83.0730,73.65,1111122 
COMPS,ioos:station:USF.COMPS:C13:1,2016-08-06T23:05:00Z,26.0630,-83.0730,70.21,1111122 
COMPS,ioos:station:USF.COMPS:C13:1,2016-08-06T23:35:00Z,26.0630,-83.0730,67.01,1111122 
COMPS,ioos:station:USF.COMPS:C13:1,2016-08-07T00:05:00Z,26.0630,-83.0730,66.86,1111122 
COMPS,ioos:station:USF.COMPS:C13:1,2016-08-07T00:35:00Z,26.0630,-83.0730,70.31,1111122 
COMPS,ioos:station:USF.COMPS:C13:1,2016-08-07T01:05:00Z,26.0630,-83.0730,68.14,1111122 
COMPS,ioos:station:USF.COMPS:C13:1,2016-08-07T01:35:00Z,26.0630,-83.0730,67.0,1111122 
COMPS,ioos:station:USF.COMPS:C13:1,2016-08-07T02:05:00Z,26.0630,-83.0730,66.18,1111122 
COMPS,ioos:station:USF.COMPS:C13:1,2016-08-07T02:35:00Z,26.0630,-83.0730,66.61,1111122 
COMPS,ioos:station:USF.COMPS:C13:1,2016-08-07T03:05:00Z,26.0630,-83.0730,68.13,1111122 
COMPS,ioos:station:USF.COMPS:C13:1,2016-08-07T03:35:00Z,26.0630,-83.0730,68.76,1111122 
COMPS,ioos:station:USF.COMPS:C13:1,2016-08-07T04:05:00Z,26.0630,-83.0730,69.49,1111122 
COMPS,ioos:station:USF.COMPS:C13:1,2016-08-07T04:35:00Z,26.0630,-83.0730,71.95,1111122 
COMPS,ioos:station:USF.COMPS:C13:1,2016-08-07T05:05:00Z,26.0630,-83.0730,72.59,1111122 
COMPS,ioos:station:USF.COMPS:C13:1,2016-08-07T05:35:00Z,26.0630,-83.0730,72.96,1111122 
COMPS,ioos:station:USF.COMPS:C13:1,2016-08-07T06:05:00Z,26.0630,-83.0730,76.96,1111122 
COMPS,ioos:station:USF.COMPS:C13:1,2016-08-07T06:35:00Z,26.0630,-83.0730,76.47,1111122 
COMPS,ioos:station:USF.COMPS:C13:1,2016-08-07T07:05:00Z,26.0630,-83.0730,76.6,1111122 
COMPS,ioos:station:USF.COMPS:C13:1,2016-08-07T07:35:00Z,26.0630,-83.0730,77.36,1111122 
COMPS,ioos:station:USF.COMPS:C13:1,2016-08-07T08:05:00Z,26.0630,-83.0730,76.43,1111122 
COMPS,ioos:station:USF.COMPS:C13:1,2016-08-07T08:35:00Z,26.0630,-83.0730,78.01,1111122 
COMPS,ioos:station:USF.COMPS:C13:1,2016-08-07T09:05:00Z,26.0630,-83.0730,78.91,1111122 
COMPS,ioos:station:USF.COMPS:C13:1,2016-08-07T09:35:00Z,26.0630,-83.0730,78.06,1111122 
COMPS,ioos:station:USF.COMPS:C13:1,2016-08-07T10:05:00Z,26.0630,-83.0730,78.5,1111122 
COMPS,ioos:station:USF.COMPS:C13:1,2016-08-07T10:35:00Z,26.0630,-83.0730,78.33,1111122 
COMPS,ioos:station:USF.COMPS:C13:1,2016-08-07T11:05:00Z,26.0630,-83.0730,75.15,1111122 
COMPS,ioos:station:USF.COMPS:C13:1,2016-08-07T11:35:00Z,26.0630,-83.0730,75.75,1111122 
COMPS,ioos:station:USF.COMPS:C13:1,2016-08-07T12:05:00Z,26.0630,-83.0730,75.77,1111122 
COMPS,ioos:station:USF.COMPS:C13:1,2016-08-07T12:35:00Z,26.0630,-83.0730,76.6,1111122 
COMPS,ioos:station:USF.COMPS:C13:1,2016-08-07T13:05:00Z,26.0630,-83.0730,76.02,1111122 
COMPS,ioos:station:USF.COMPS:C13:1,2016-08-07T13:35:00Z,26.0630,-83.0730,75.64,1111122 
COMPS,ioos:station:USF.COMPS:C13:1,2016-08-07T14:05:00Z,26.0630,-83.0730,75.9,1111122 
COMPS,ioos:station:USF.COMPS:C13:1,2016-08-07T14:35:00Z,26.0630,-83.0730,73.15,1111122 
COMPS,ioos:station:USF.COMPS:C13:1,2016-08-07T15:05:00Z,26.0630,-83.0730,71.39,1111122 
COMPS,ioos:station:USF.COMPS:C13:1,2016-08-07T15:35:00Z,26.0630,-83.0730,75.67,1111122 
COMPS,ioos:station:USF.COMPS:C13:1,2016-08-07T16:05:00Z,26.0630,-83.0730,75.36,1111122 
COMPS,ioos:station:USF.COMPS:C13:1,2016-08-07T16:35:00Z,26.0630,-83.0730,69.47,1111122 
COMPS,ioos:station:USF.COMPS:C13:1,2016-08-07T17:05:00Z,26.0630,-83.0730,69.24,1111122 
COMPS,ioos:station:USF.COMPS:C13:1,2016-08-07T17:35:00Z,26.0630,-83.0730,71.05,1111122 
COMPS,ioos:station:USF.COMPS:C13:1,2016-08-07T18:05:00Z,26.0630,-83.0730,70.25,1111122 
COMPS,ioos:station:USF.COMPS:C13:1,2016-08-07T18:35:00Z,26.0630,-83.0730,71.72,1111122 
COMPS,ioos:station:USF.COMPS:C13:1,2016-08-07T19:05:00Z,26.0630,-83.0730,70.98,1111122 
COMPS,ioos:station:USF.COMPS:C13:1,2016-08-07T19:35:00Z,26.0630,-83.0730,74.73,1111122 
COMPS,ioos:station:USF.COMPS:C13:1,2016-08-07T20:05:00Z,26.0630,-83.0730,74.74,1111122 
COMPS,ioos:station:USF.COMPS:C13:1,2016-08-07T20:35:00Z,26.0630,-83.0730,74.92,1111122 
COMPS,ioos:station:USF.COMPS:C13:1,2016-08-07T21:05:00Z,26.0630,-83.0730,74.95,1111122 
COMPS,ioos:station:USF.COMPS:C13:1,2016-08-07T21:35:00Z,26.0630,-83.0730,72.68,1111122 
COMPS,ioos:station:USF.COMPS:C13:1,2016-08-07T22:05:00Z,26.0630,-83.0730,73.87,1111122 
COMPS,ioos:station:USF.COMPS:C13:1,2016-08-07T22:35:00Z,26.0630,-83.0730,66.07,1111122 
COMPS,ioos:station:USF.COMPS:C13:1,2016-08-07T23:05:00Z,26.0630,-83.0730,67.12,1111122 
COMPS,ioos:station:USF.COMPS:C13:1,2016-08-07T23:35:00Z,26.0630,-83.0730,73.24,1111122 
COMPS,ioos:station:USF.COMPS:C13:1,2016-08-08T00:05:00Z,26.0630,-83.0730,73.23,1111122 
COMPS,ioos:station:USF.COMPS:C13:1,2016-08-08T00:35:00Z,26.0630,-83.0730,73.33,1111122 
COMPS,ioos:station:USF.COMPS:C13:1,2016-08-08T01:05:00Z,26.0630,-83.0730,74.32,1111122 
COMPS,ioos:station:USF.COMPS:C13:1,2016-08-08T01:35:00Z,26.0630,-83.0730,75.75,1111122 
COMPS,ioos:station:USF.COMPS:C13:1,2016-08-08T02:05:00Z,26.0630,-83.0730,77.92,1111122 
COMPS,ioos:station:USF.COMPS:C13:1,2016-08-08T02:35:00Z,26.0630,-83.0730,74.41,1111122 
COMPS,ioos:station:USF.COMPS:C13:1,2016-08-08T03:05:00Z,26.0630,-83.0730,79.32,1111122 
COMPS,ioos:station:USF.COMPS:C13:1,2016-08-08T03:35:00Z,26.0630,-83.0730,79.59,1111122 
COMPS,ioos:station:USF.COMPS:C13:1,2016-08-08T04:05:00Z,26.0630,-83.0730,78.72,1111122 
COMPS,ioos:station:USF.COMPS:C13:1,2016-08-08T04:35:00Z,26.0630,-83.0730,79.27,1111122 
COMPS,ioos:station:USF.COMPS:C13:1,2016-08-08T05:05:00Z,26.0630,-83.0730,78.78,1111122 
COMPS,ioos:station:USF.COMPS:C13:1,2016-08-08T05:35:00Z,26.0630,-83.0730,82.86,1111122 
COMPS,ioos:station:USF.COMPS:C13:1,2016-08-08T06:05:00Z,26.0630,-83.0730,79.81,1111122 
COMPS,ioos:station:USF.COMPS:C13:1,2016-08-08T06:35:00Z,26.0630,-83.0730,79.89,1111122 
COMPS,ioos:station:USF.COMPS:C13:1,2016-08-08T07:05:00Z,26.0630,-83.0730,81.15,1111122 
COMPS,ioos:station:USF.COMPS:C13:1,2016-08-08T07:35:00Z,26.0630,-83.0730,79.08,1111122 
COMPS,ioos:station:USF.COMPS:C13:1,2016-08-08T08:05:00Z,26.0630,-83.0730,77.83,1111122 
COMPS,ioos:station:USF.COMPS:C13:1,2016-08-08T08:35:00Z,26.0630,-83.0730,78.27,1111122 
COMPS,ioos:station:USF.COMPS:C13:1,2016-08-08T09:05:00Z,26.0630,-83.0730,78.79,1111122 
COMPS,ioos:station:USF.COMPS:C13:1,2016-08-08T09:35:00Z,26.0630,-83.0730,76.4,1111122 
COMPS,ioos:station:USF.COMPS:C13:1,2016-08-08T10:05:00Z,26.0630,-83.0730,77.21,1111122 
COMPS,ioos:station:USF.COMPS:C13:1,2016-08-08T10:35:00Z,26.0630,-83.0730,78.34,1111122 